Other Public Products
Issued by NWS Charleston, SC

Current Version | Previous Version | Graphics & Text | Print | Product List | Glossary On
Versions: 1 2 3 4 5 6 7 8 9 10 11 12 13 14 15 16 17 18 19 20 21 22 23 24 25 26 27 28 29 30 31 32 33 34 35 36 37 38 39 40 41 42 43 44 45 46 47 48 49 50
000
FPUS82 KCHS 230112
OPUCHS

TEST...KCHS/KSAV Gateway Observations...TEST
National Weather Service Charleston SC
900 PM EDT SUN APR 22 2018

NOTE: "fair" indicates few or no clouds below 12,000 feet with no
significant weather and/or obstructions to visibility.

SCZ050-WAZ558-NCZ071-TXZ119-213-PAZ071-DCZ001-FLZ074-172-MI076-
NYZ176-178-MAZ016-IL014-TNZ027-NJZ106-GAZ044-MD014-230200-

...Gateway Observations for Charleston International...

CITY           SKY/WX    TMP DP  RH WIND       PRES   REMARKS
Chas Airport   LGT RAIN  66  56  70 E17G24    30.25R
Seattle        MOSUNNY   58  37  45 N12       30.32F
Charlotte      CLOUDY    66  47  50 E8        30.24R
Dallas DFW     PTCLDY    63  45  51 NW10      30.01S
Dallas Love    MOCLDY    65  45  48 NW15      30.02S
Philladelphia  FAIR      57  33  40 S9        30.37R
Wash National  MOCLDY    57  39  51 SE7       30.37R
Baltimore      FAIR      55  35  47 E8        30.37R
Miami          CLOUDY    78  72  81 E13       30.05R
Detroit        FAIR      55  24  30 E7        30.32S
Newark         FAIR      55  29  36 SE7       30.36R
Laguardia      FAIR      54  23  30 S17       30.36R
J F K          FAIR      48  34  58 S13       30.39R
Boston Logan   FAIR      51  31  46 S3        30.35R
Ft. Lauderdale MOCLDY    79  74  84 E16       30.04R
Chicago O`Hare MOCLDY    51  26  37 NE12      30.26R
Chicago Midway MOCLDY    51  27  39 NE15      30.26R
Houston Bush   FAIR      68  52  56 NW8       29.99R
Houston Hobby  FAIR      69  51  52 NW9       29.98R
Nashville      RAIN      58  56  93 E16       29.97S FOG
Atlanta        LGT RAIN  60  58  92 E24G37    30.03F

$$

GAZ044-118-TXZ119-213-NCZ071-DCZ001-MDZ014-506-PAZ021-071-NJZ106-
NYZ176-178-MAZ106-OHZ011-021-055-MIZ076-KYZ091-ILZ014-INZ047-
MNZ060-ONZ431-230200-

...Gateway Observations for Savannah International...

CITY           SKY/WX    TMP DP  RH WIND       PRES   REMARKS
Savannah Arpt  CLOUDY    67  58  72 E10       30.18S
Atlanta        LGT RAIN  60  58  92 E24G37    30.03F
Charlotte      CLOUDY    66  47  50 E8        30.24R
Dallas DFW     PTCLDY    63  45  51 NW10      30.01S
Houston Bush   FAIR      68  52  56 NW8       29.99R
Wash National  MOCLDY    57  39  51 SE7       30.37R
Wash Dulles    FAIR      56  38  50 SE6       30.35R
Baltimore      FAIR      55  35  47 E8        30.37R
Philadelphia   FAIR      57  33  40 S9        30.37R
Newark         FAIR      55  29  36 SE7       30.36R
Laguardia      FAIR      54  23  30 S17       30.36R
J F K          FAIR      48  34  58 S13       30.39R
Boston         FAIR      51  31  46 S3        30.35R
Pittsburg      FAIR      62  27  26 NE7       30.25R
Akron          FAIR      55  27  34 NE10      30.27R
Cleveland      FAIR      49  28  44 N9        30.31R
Cincinnati     MOCLDY    62  26  25 NE10      30.15F
Columbus       FAIR      55  31  39 NE8       30.20S
Detroit        FAIR      55  24  30 E7        30.32S
Chicago O`Hare MOCLDY    51  26  37 NE12      30.26R
Minneapolis    FAIR      59  36  42 S7        30.24S
Indianapolis   CLOUDY    61  31  32 NE12      30.16R
Toronto Canada PTCLDY    54  14  20 VRB2      30.38R

$$




USA.gov is the U.S. government's official web portal to all federal, state and local government web resources and services.